Location: Focicchia
(42.2496°N, 9.2935°E)
Time: 04:20:35
(UTC+00:00)

X-37B - Pass Details

Date: 08 August 2021
Orbit: 381 x 393 km, 45.0° (Epoch: 29 August)

Event Time Altitude Azimuth Distance (km) Brightness Sun altitude
Exits shadow 01:37:26 25° 63° (ENE) 811 2.7 -24.5°
Drops below altitude 10° 01:38:56 10° 70° (ENE) 1,398 4.1 -24.4°
Sets 01:41:01 0° 74° (ENE) 2,251 5.2 -24.1°
